Location: ?????????
(48.4762°N, 34.1366°E)
Time: 02:39:47
(UTC+00:00)

Daily predictions for brighter satellites

Satellite Brightness Start Highest point End
(mag) Time Altitude Azimuth Time Altitude Azimuth Time Altitude Azimuth
CENTAUR R/B 4.3 00:27:06 35° E 00:27:06 35° E 00:32:08 10° ESE
Lacrosse 5 4.4 01:13:33 17° ESE 01:13:33 17° ESE 01:15:42 10° E
Cosmos 2263 Rocket 3.8 01:19:41 31° ENE 01:19:41 31° ENE 01:23:16 10° NE
SJ 16-02 3.9 01:31:42 19° E 01:31:42 19° E 01:33:58 10° NE
CZ-4C R/B 4.4 01:40:32 12° SSE 01:43:27 19° ESE 01:47:19 10° ENE
ATLAS 3B R/B 3.4 01:43:18 44° N 01:44:25 48° NE 01:51:16 10° ESE
Cosmos 1943 4.3 01:54:07 36° SSE 01:54:07 36° SSE 01:57:23 10° SSE
Lacrosse 4 Rocket 3.5 02:01:49 23° SE 02:01:49 23° SE 02:03:33 10° SE
Cosmos 2227 Rocket 4.3 02:15:24 14° N 02:15:24 14° N 02:16:36 10° N
NOSS 3-2 (C) 4.1 02:12:37 56° SW 02:12:37 56° SW 02:20:37 10° SSE
Cosmos 923 Rocket 4.2 02:13:13 67° NE 02:13:26 68° ENE 02:18:43 10° SSE
NOSS 3-4 (A) 3.5 02:13:20 57° S 02:14:27 71° SE 02:20:46 10° NE
NOSS 3-4 (C) 3.5 02:13:24 56° S 02:14:35 71° SE 02:20:54 10° NE
CENTAUR R/B 3.2 02:14:21 56° WSW 02:14:36 56° WSW 02:23:10 10° SSE
ALOS 2.7 02:10:39 10° NNE 02:14:48 58° ENE 02:14:48 58° ENE
Cosmos 2227 4.2 02:19:37 66° N 02:19:37 66° N 02:24:31 10° NNE
ARGOS Delta rocket 3.9 02:20:07 10° NNE 02:25:11 84° NE 02:25:11 84° NE
USA 305 4.2 02:26:38 33° NNE 02:26:38 33° NNE 02:29:39 10° ENE
Cosmos 158 Rocket 3.7 02:30:47 88° SE 02:30:47 88° SE 02:35:43 10° SSE
Meteor 1-31 Rocket 4.0 02:27:16 10° NNE 02:29:48 36° NE 02:29:48 36° NE
USA 306 4.0 02:34:44 36° NNE 02:34:44 36° NNE 02:38:07 10° ENE
ATLAS 2AS CENTAUR R/B 3.1 02:27:56 18° SSW 02:34:07 78° SE 02:41:59 10° NE
Cosmos 1515 Rocket 4.3 02:32:24 23° N 02:34:59 51° ENE 02:39:20 10° SSE
Cosmos 1844 Rocket 4.2 02:31:26 10° S 02:36:30 35° ESE 02:41:37 10° NE
Cosmos 1151 Rocket 4.0 02:40:06 36° S 02:40:06 36° S 02:42:39 10° S
SL-4 R/B 2.7 02:39:27 44° NE 02:39:27 44° NE 02:42:17 10° ENE
SKYMED 2 3.8 02:36:18 10° SSE 02:40:36 68° ENE 02:42:12 37° N
Cosmos 1782 3.0 02:40:54 69° NE 02:41:05 71° E 02:45:06 10° SSE
Cosmos 1680 Rocket 3.5 02:39:39 43° NNW 02:41:28 87° ENE 02:46:47 10° SSE
SJ-12 4.4 02:42:32 10° NNE 02:46:34 59° E 02:50:34 10° S
Cosmos 2297 Rocket 4.3 02:48:41 12° NNW 02:48:41 12° NNW 02:49:45 10° N
ERS-2 4.4 02:44:00 10° S 02:44:43 15° S 02:44:43 15° S
FALCON 9 DEB 3.9 02:52:21 47° ESE 02:52:21 47° ESE 02:55:06 10° ENE
FALCON 9 DEB 4.4 02:53:23 34° NNE 02:53:23 34° NNE 02:56:02 10° ENE
ADEOS 3.4 02:47:38 10° NNE 02:52:52 73° WNW 02:58:03 10° SSW
CRYOSAT 2 4.2 02:48:51 10° S 02:53:43 85° W 02:58:38 10° N
Lacrosse 5 1.8 02:52:48 41° SW 02:54:34 83° SE 02:59:40 10° NE
ATLAS CENTAUR R/B 1.2 02:55:55 63° N 02:56:19 70° NE 03:00:13 10° SE
RESURS DK-1 3.2 02:52:24 10° S 02:56:26 51° ESE 03:00:30 10° NE
Cosmos 1328 Rocket 3.6 02:58:31 54° WSW 02:58:31 54° WSW 03:02:29 10° S
Gbstr 26 Del rocket 2.8 03:01:01 56° SSW 03:01:01 56° SSW 03:04:49 10° SE
Meteor PRIRODA 4.2 02:57:22 10° NNE 03:01:05 58° E 03:04:46 10° S
Cosmos 2112 Rocket 3.9 02:58:30 30° NNW 03:01:12 77° WSW 03:06:32 10° SSE
Cosmos 2263 Rocket 2.5 03:01:27 41° WNW 03:01:56 42° NW 03:07:21 10° NNE
ERBS 4.0 03:05:19 22° NNE 03:05:19 22° NNE 03:07:11 10° NE
H-2A R/B 4.2 03:00:50 10° NNE 03:04:33 40° E 03:08:13 10° SSE
SJ 16-02 1.5 03:08:47 47° WNW 03:08:56 48° WNW 03:13:16 10° NNE
Meteor 1-26 Rocket 4.4 03:06:30 19° NNW 03:10:23 50° W 03:15:46 10° SSW
Cosmos 1898 Rocket 3.6 03:07:46 10° SSW 03:13:06 84° ESE 03:18:28 10° NNE
CZ-2C R/B 4.4 03:09:38 10° SE 03:14:23 32° ENE 03:19:04 10° N
FENGYUN 3A 3.9 03:11:47 10° N 03:16:53 42° WNW 03:21:56 10° SW
Envisat 4.3 03:13:49 10° NNE 03:18:41 43° E 03:23:30 10° S
Cosmos 2181 Rocket 4.2 03:13:06 10° NNW 03:18:58 45° W 03:24:46 10° SSW
Cosmos 1766 Rocket 4.4 03:20:46 31° NW 03:20:46 31° NW 03:23:53 10° N
Cosmos 2082 Rocket 4.2 03:17:23 10° N 03:21:41 21° NE 03:25:58 10° E
Cosmos 1709 Rocket 4.5 03:17:14 10° SW 03:23:04 37° WNW 03:28:56 10° N
Cosmos 1743 Rocket 3.6 03:19:11 10° S 03:23:37 85° ESE 03:28:09 10° N
FALCON 9 DEB 2.9 03:24:12 43° SW 03:25:06 84° SSE 03:28:21 10° ENE
FALCON 9 DEB 2.8 03:24:25 46° WSW 03:25:17 87° SE 03:28:32 10° ENE
Cosmos 1408 Rocket 3.7 03:21:24 10° SSW 03:25:44 50° WNW 03:30:06 10° N
H-2A R/B 4.0 03:22:09 10° NNE 03:25:44 35° E 03:29:16 10° SSE
COSMO-SKYMED 1 3.0 03:24:38 10° SSW 03:28:44 40° W 03:30:47 25° NW
Cosmos 1937 Rocket 3.5 03:25:08 10° SSW 03:30:17 86° ESE 03:35:31 10° NNE
USA 307 3.6 03:28:58 27° NW 03:30:50 42° N 03:34:58 10° E
CZ-4C R/B 2.0 03:25:58 10° SW 03:31:01 77° NW 03:37:09 10° NE
Cosmos 2154 Rocket 4.2 03:25:36 10° S 03:31:49 78° E 03:38:06 10° NNE
Cosmos 1833 Rocket 4.1 03:27:24 10° NNW 03:32:33 35° NE 03:37:40 10° ESE
Meteor 2-3 Rocket 4.1 03:27:22 10° SW 03:32:43 40° WNW 03:38:09 10° N
BREEZE-M DEB (TANK) 4.0 03:30:34 22° W 03:34:27 42° SW 03:37:29 10° SSE
ATLAS 3B R/B 3.0 03:30:35 20° NW 03:35:17 53° WSW 03:42:13 10° SSE
Meteor 1-27 Rocket 4.2 03:30:11 10° N 03:35:55 66° ENE 03:41:45 10° SSE
MOS 1 Rocket 3.4 03:32:09 10° S 03:36:59 82° WSW 03:42:10 10° NNW
USA 308 3.6 03:35:04 24° NW 03:37:12 43° N 03:41:20 10° E
Lacrosse 4 Rocket 3.3 03:38:11 15° WSW 03:38:11 15° WSW 03:39:56 10° SW
Meteor 1-10 Rocket 4.1 03:32:19 10° NNW 03:37:54 79° W 03:43:30 10° S
CZ-4B R/B 3.3 03:36:39 10° N 03:41:01 49° WNW 03:45:16 10° SW
COSMOS 2406 4.1 03:36:48 10° NNW 03:42:23 48° NE 03:47:57 10° SE
Cosmos 1805 Rocket 3.9 03:38:26 10° S 03:42:50 69° E 03:47:17 10° NNE
Cosmos 1689 Rocket 3.6 03:44:41 10° SSW 03:46:15 19° WSW 03:46:15 19° WSW
FALCON 9 DEB 2.9 03:46:09 23° WSW 03:47:58 71° NNW 03:51:11 10° ENE
Cosmos 2327 Rocket 4.4 03:45:15 10° SSW 03:51:21 76° W 03:57:27 10° N
Cosmos 2278 Rocket 4.5 03:47:05 10° SSE 03:51:49 28° ESE 03:56:35 10° NE
Cosmos 1862 3.4 03:47:55 10° SSW 03:51:54 56° WNW 03:55:55 10° N
ALOS 3.6 03:49:00 10° NNW 03:52:17 19° WNW 03:53:16 18° WNW
Cosmos 2074 Rocket 4.1 03:46:49 10° SSW 03:52:49 51° WNW 03:58:53 10° N
Aureole 2 Rocket 1.4 03:50:18 10° SSW 03:52:50 85° WNW 03:55:24 10° NNE
YAOGAN 6 2.5 03:50:02 10° NNE 03:53:34 88° ESE 03:57:02 10° SSW
Genesis I 3.2 03:50:34 10° SW 03:54:19 55° NW 03:58:08 10° NNE
Cosmos 858 Rocket 4.5 03:49:25 10° SW 03:54:35 63° WNW 03:59:50 10° NNE
EXPRESS MD2 3.9 03:53:25 19° WNW 03:56:10 81° SSW 04:03:45 10° ESE
Cosmos 990 Rocket 4.4 03:51:15 10° SW 03:56:12 41° WNW 04:01:12 10° NNE
EO 1 Delta rocket 4.2 03:52:07 10° S 03:56:55 45° W 04:01:23 10° NNW
PSLV R/B 3.7 03:57:21 10° N 04:01:12 61° WNW 04:04:56 10° SSW
Cosmos 1295 Rocket 4.4 03:58:23 10° SSW 04:04:27 76° W 04:10:35 10° N
SL-24 DEB 4.3 04:00:17 10° S 04:05:01 68° W 04:09:49 10° N
Meteor 1-31 Rocket 4.3 04:02:47 10° NNW 04:05:04 15° WNW 04:05:08 15° WNW
NOSS 3-4 (A) 4.1 04:00:50 12° W 04:05:52 35° NNW 04:11:51 10° NE
NOSS 3-4 (C) 4.1 04:00:54 12° W 04:06:00 35° NNW 04:11:59 10° NE
USA 305 3.4 04:02:46 15° WNW 04:06:10 52° NNE 04:10:23 10° E
Cosmos 405 Rocket 3.0 04:04:50 10° SW 04:08:19 39° WNW 04:11:54 10° N
USA-17 4.5 04:05:30 10° WSW 04:08:57 48° NW 04:11:57 10° NNE
Cosmos 2184 Rocket 4.4 04:04:27 10° SW 04:10:23 41° WNW 04:16:24 10° N
USA 234 3.8 04:03:55 10° ENE 04:10:25 63° SE 04:16:54 10° SW
Cosmos 1812 3.6 04:08:21 10° NNW 04:11:41 29° W 04:15:01 10° SSW
Cosmos 2228 Rocket 3.7 04:07:47 10° NNW 04:11:47 34° W 04:15:46 10° SSW
USA 306 3.3 04:10:52 13° WNW 04:14:38 56° NNE 04:18:52 10° E
Cosmos 1633 Rocket 3.7 04:12:06 10° S 04:16:27 61° E 04:20:49 10° NNE
SL-4 R/B 2.0 04:15:03 13° WNW 04:18:29 60° NNE 04:22:03 10° E
Cosmos 1844 Rocket 3.0 04:14:55 10° SW 04:20:18 44° NW 04:25:45 10° NNE
MOS 1-B 4.3 04:18:58 10° NNE 04:24:46 69° WNW 04:30:32 10° SSW
Cosmos 1356 3.3 04:22:09 10° SSW 04:25:32 76° W 04:28:59 10° N
ATLAS 2AS CENTAUR R/B 3.5 04:18:24 10° W 04:25:50 41° NNW 04:33:04 10° NE
COSMOS 2455 2.9 04:20:50 10° SW 04:26:53 80° NW 04:32:58 10° NNE
FALCON 9 DEB 3.4 04:24:54 10° W 04:28:00 44° NNW 04:31:06 10° ENE
Cosmos 1707 Rocket 3.6 04:25:02 10° NNW 04:29:17 56° W 04:33:30 10° S
FALCON 9 DEB 3.4 04:26:40 10° WNW 04:30:08 62° NNE 04:33:35 10° ESE
NOAA 6 4.2 04:25:38 10° N 04:30:36 52° WNW 04:35:33 10° SW
Cosmos 1844 4.0 04:28:44 10° SW 04:33:59 42° NW 04:39:19 10° NNE
CZ-4B DEB 4.4 04:28:58 10° N 04:34:14 50° WNW 04:39:30 10° SW
ATLAS CENTAUR R/B 3.2 04:32:44 10° W 04:34:44 14° WSW 04:36:46 10° SW
RESURS DK-1 3.6 04:31:28 10° W 04:34:45 22° NW 04:38:04 10° N
Lacrosse 5 2.5 04:33:13 10° W 04:37:58 38° NNW 04:42:43 10° NE
H-2A R/B 4.1 04:35:33 10° NNW 04:38:28 20° WNW 04:41:21 10° WSW
Cosmos 372 Rocket 4.1 04:34:21 10° SW 04:39:18 50° WNW 04:44:17 10° NNE
PAYLOAD B 4.3 04:35:08 10° N 04:40:30 54° WNW 04:45:50 10° SW
Geosat 4.1 04:36:42 10° SSE 04:41:43 71° WSW 04:46:46 10° NNW
